Location: ????????
(55.5667°N, 37.5833°E)
Time: 22:14:33
(UTC+00:00)

USA 267 - Pass Details

Date: 14 April 2026
Orbit: 1101 x 1107 km, 123.0° (Epoch: 10 January)

Event Time Altitude Azimuth Distance (km) Brightness Sun altitude
Rises 23:24:35 0° 63° (ENE) 3,936 7.1 -20.5°
Reaches altitude 10° 23:27:11 10° 69° (ENE) 2,975 6.2 -20.3°
Maximum altitude 23:33:33 50° 144° (SE) 1,377 3.6 -19.8°
Enters shadow 23:36:26 31° 201° (SSW) 1,825 3.9 -19.6°
